GW0245 Weather Reports


Display with metric or nautical units.
time (UTC)temp
F
wind
direction
speed
MPH
gust
MPH
rain 1hr
in
rain 24hr
in
rain mn
in
humidity
%
barometer
mb
20260831174633 73 103 4.0 12.0 0.00 0.17 0.17 75 1021.5
20260831173105 71 84 3.0 8.0 0.00 0.17 0.17 77 1021.6
20260831171603 69 0 1.0 4.0 0.00 0.17 0.17 83 1021.8
20260831170100 67 0 0.0 2.0 0.00 0.17 0.17 87 1021.9
20260831164605 67 352 0.0 2.0 0.00 0.17 0.17 88 1022.0
20260831163107 66 49 0.0 3.0 0.00 0.17 0.17 86 1021.8
20260831161606 66 0 0.0 3.0 0.00 0.17 0.17 86 1021.6
20260831160106 66 88 2.0 8.0 0.00 0.17 0.17 85 1020.8
20260831154627 66 109 1.0 3.0 0.00 0.17 0.17 84 1021.1
20260831153118 65 0 0.0 1.0 0.00 0.17 0.17 86 1021.1
20260831151610 65 0 0.0 1.0 0.00 0.17 0.17 87 1021.0
20260831150106 64 0 0.0 0.0 0.00 0.17 0.17 89 1020.9
20260831144605 64 0 0.0 1.0 0.00 0.17 0.17 89 1020.9
20260831143109 64 0 0.0 0.0 0.00 0.17 0.17 89 1020.5
20260831141605 63 0 0.0 1.0 0.00 0.17 0.17 88 1020.3
20260831140104 63 0 0.0 1.0 0.00 0.17 0.17 87 1020.0
20260831134614 63 0 0.0 3.0 0.00 0.17 0.17 86 1019.5
20260831133107 63 0 0.0 0.0 0.00 0.17 0.17 85 1019.0
20260831131601 62 0 0.0 1.0 0.00 0.17 0.17 85 1018.8
20260831130109 62 0 0.0 2.0 0.00 0.17 0.17 84 1018.8
20260831124608 62 0 0.0 0.0 0.00 0.17 0.17 86 1018.7
20260831123105 62 244 0.0 1.0 0.00 0.17 0.17 83 1018.2
20260831121617 62 0 0.0 1.0 0.00 0.17 0.17 82 1018.0
20260831120111 62 0 0.0 1.0 0.00 0.17 0.17 80 1017.8
20260831114605 62 0 0.0 4.0 0.00 0.17 0.17 81 1017.5
20260831113111 62 227 1.0 4.0 0.00 0.17 0.17 83 1017.6
20260831111604 62 0 0.0 2.0 0.00 0.17 0.17 85 1017.9
20260831110107 62 261 0.0 2.0 0.00 0.17 0.17 85 1018.0
20260831104605 62 273 0.0 4.0 0.00 0.17 0.17 84 1018.1
20260831103111 62 0 0.0 2.0 0.00 0.17 0.17 85 1018.2
20260831101610 63 0 1.0 5.0 0.00 0.17 0.17 85 1018.7
20260831100110 62 250 3.0 7.0 0.00 0.17 0.17 89 1019.1
20260831094608 63 0 0.0 3.0 0.00 0.17 0.17 91 1019.6
20260831093152 63 268 2.0 6.0 0.00 0.17 0.17 91 1020.1
20260831091606 64 275 2.0 4.0 0.03 0.17 0.17 91 1020.7
20260831090101 64 0 0.0 3.0 0.09 0.17 0.17 90 1020.9
20260831084652 64 59 2.0 7.0 0.14 0.17 0.17 89 1020.4
20260831083107 64 0 2.0 7.0 0.16 0.17 0.17 83 1020.0
20260831081602 65 160 6.0 19.0 0.13 0.14 0.14 81 1020.1
20260831080125 67 249 9.0 21.0 0.08 0.08 0.08 79 1020.6
20260831074605 69 200 10.0 19.0 0.03 0.03 0.03 69 1019.9
20260831073101 73 196 7.0 17.0 0.01 0.01 0.01 58 1018.9
20260831071612 73 212 10.0 23.0 0.01 0.01 0.01 67 1018.5
20260831070118 77 230 12.0 24.0 0.00 0.00 0.00 64 1018.5
20260831064603 77 0 0.0 2.0 0.00 0.00 0.00 69 1017.5
20260831063113 77 302 0.0 4.0 0.00 0.00 0.00 66 1017.2
20260831061605 77 265 1.0 4.0 0.00 0.00 0.00 64 1016.9
20260831060122 77 0 0.0 3.0 0.00 0.00 0.00 64 1016.9
20260831054608 77 0 0.0 1.0 0.00 0.00 0.00 65 1016.8
20260831053107 77 0 0.0 2.0 0.00 0.00 0.00 67 1017.0
20260831051604 77 0 0.0 0.0 0.00 0.00 0.00 65 1016.6
20260831050118 77 259 0.0 1.0 0.00 0.00 0.00 64 1016.6
20260831044609 78 0 0.0 1.0 0.00 0.00 0.00 61 1016.6
20260831043105 79 0 2.0 4.0 0.00 0.00 0.00 60 1016.9
20260831041601 80 0 0.0 3.0 0.00 0.00 0.00 57 1017.1
20260831040107 81 0 0.0 6.0 0.00 0.00 0.00 54 1017.0
20260831034612 81 218 1.0 5.0 0.00 0.02 0.00 54 1016.9
20260831033104 80 277 0.0 3.0 0.00 0.02 0.00 55 1016.8
20260831031600 80 0 0.0 4.0 0.00 0.02 0.00 55 1016.5
20260831030107 81 0 0.0 2.0 0.00 0.02 0.00 54 1016.1
20260831024605 82 0 0.0 6.0 0.00 0.02 0.00 52 1015.9
20260831023105 83 254 3.0 8.0 0.00 0.02 0.00 49 1015.8
20260831021609 83 269 4.0 8.0 0.00 0.02 0.00 49 1015.8
20260831020108 84 250 4.0 10.0 0.00 0.02 0.00 47 1015.8
20260831014623 84 268 5.0 10.0 0.00 0.02 0.00 47 1015.8
20260831013102 85 269 2.0 6.0 0.00 0.02 0.00 47 1015.7
20260831011604 85 271 2.0 6.0 0.00 0.02 0.00 46 1015.6
20260831010109 86 257 2.0 4.0 0.00 0.02 0.00 44 1015.6
20260831004605 87 241 2.0 9.0 0.00 0.06 0.00 42 1015.6
20260831003101 87 269 1.0 5.0 0.00 0.06 0.00 44 1015.5
20260831001620 88 201 1.0 5.0 0.00 0.06 0.00 41 1015.2
20260831000107 89 192 4.0 9.0 0.00 0.06 0.00 40 1015.3
20260830234606 89 239 2.0 7.0 0.00 0.07 0.00 40 1015.3
20260830233131 90 220 2.0 6.0 0.00 0.07 0.00 40 1015.4
20260830231611 90 231 5.0 13.0 0.00 0.07 0.00 40 1015.6
20260830230128 91 130 3.0 12.0 0.00 0.07 0.00 40 1015.6
20260830224606 92 192 1.0 6.0 0.00 0.07 0.00 37 1015.8
20260830223105 91 196 4.0 13.0 0.00 0.07 0.00 39 1016.1
20260830221607 90 144 3.0 9.0 0.00 0.07 0.00 40 1016.3
20260830220107 91 193 0.0 7.0 0.00 0.07 0.00 38 1016.5
20260830214608 90 248 5.0 12.0 0.00 0.07 0.00 41 1016.9
20260830213103 89 201 3.0 7.0 0.00 0.07 0.00 44 1017.1
20260830211605 90 153 6.0 11.0 0.00 0.07 0.00 39 1017.3
20260830210109 91 182 4.0 11.0 0.00 0.07 0.00 42 1017.5
20260830204606 89 182 3.0 9.0 0.00 0.07 0.00 40 1017.8
20260830203103 88 132 3.0 10.0 0.00 0.07 0.00 42 1018.1
20260830201609 88 145 3.0 15.0 0.00 0.07 0.00 44 1018.2
20260830200106 88 142 3.0 11.0 0.00 0.07 0.00 45 1018.5
20260830194612 88 92 5.0 12.0 0.00 0.28 0.00 46 1018.7
20260830193109 87 146 3.0 10.0 0.00 0.28 0.00 49 1018.8
20260830191609 86 99 3.0 12.0 0.00 0.28 0.00 49 1019.0
20260830190106 85 83 5.0 11.0 0.00 0.28 0.00 50 1019.2
20260830184602 86 97 1.0 9.0 0.00 0.39 0.00 52 1019.5
20260830183106 85 140 2.0 8.0 0.00 0.39 0.00 55 1019.7
20260830181606 84 68 2.0 10.0 0.00 0.39 0.00 56 1019.8
20260830180108 83 107 2.0 7.0 0.00 0.39 0.00 59 1019.9